FW6376 Weather Reports


Display with metric or nautical units.
time (UTC)temp
F
wind
direction
speed
MPH
gust
MPH
rain 1hr
in
rain 24hr
in
rain mn
in
humidity
%
barometer
mb
20260505124549 62 250 0.0 5.0 0.00 0.00 0.00 48 1008.0
20260505123051 60 48 1.0 7.0 0.00 0.00 0.00 48 1008.0
20260505121541 59 273 0.0 4.0 0.00 0.00 0.00 52 1008.3
20260505120042 58 259 0.0 3.0 0.00 0.00 0.00 52 1008.1
20260505114534 55 78 2.0 5.0 0.00 0.00 0.00 56 1008.4
20260505113030 50 66 0.0 3.0 0.00 0.00 0.00 63 1008.7
20260505111526 47 329 0.0 1.0 0.00 0.00 0.00 66 1008.8
20260505101531 43 329 0.0 2.0 0.00 0.00 0.00 68 1008.2
20260505100021 42 329 0.0 1.0 0.00 0.00 0.00 68 1008.2
20260505094512 42 329 0.0 0.0 0.00 0.00 0.00 68 1008.1
20260505093022 42 329 0.0 2.0 0.00 0.00 0.00 67 1008.2
20260505091509 43 329 0.0 2.0 0.00 0.00 0.00 67 1008.4
20260505090009 43 329 0.0 2.0 0.00 0.00 0.00 67 1008.6
20260505084508 43 329 0.0 0.0 0.00 0.00 0.00 67 1008.5
20260505083012 43 329 0.0 0.0 0.00 0.00 0.00 67 1008.3
20260505081508 43 329 0.0 0.0 0.00 0.00 0.00 66 1008.4
20260505080007 43 329 0.0 0.0 0.00 0.00 0.00 67 1008.4
20260505074505 43 329 0.0 0.0 0.00 0.00 0.00 67 1008.5
20260505073002 43 329 0.0 0.0 0.00 0.00 0.00 66 1008.5
20260505071606 44 329 0.0 0.0 0.00 0.00 0.00 66 1008.6
20260505070059 44 329 0.0 0.0 0.00 0.00 0.00 66 1008.8
20260505064556 45 329 0.0 1.0 0.00 0.00 0.00 66 1008.7
20260505063124 46 329 0.0 0.0 0.00 0.00 0.00 66 1008.7
20260505061623 46 329 0.0 0.0 0.00 0.00 0.00 66 1008.8
20260505060101 47 329 0.0 0.0 0.00 0.00 0.00 65 1008.9
20260505054552 48 329 0.0 1.0 0.00 0.00 0.00 62 1008.8
20260505053050 49 329 0.0 5.0 0.00 0.00 0.00 61 1008.7
20260505051609 48 239 1.0 7.0 0.00 0.00 0.00 60 1008.8
20260505041547 46 327 0.0 3.0 0.00 0.00 0.00 65 1008.6
20260505040039 46 325 0.0 6.0 0.00 0.00 0.00 66 1008.6
20260505034537 45 234 0.0 2.0 0.00 0.00 0.00 67 1008.3
20260505033037 45 234 0.0 2.0 0.00 0.00 0.00 66 1008.3
20260505031536 46 218 0.0 2.0 0.00 0.00 0.00 65 1008.4
20260505030036 46 218 0.0 0.0 0.00 0.00 0.00 65 1008.2
20260505024537 47 218 0.0 0.0 0.00 0.00 0.00 64 1008.1
20260505023035 48 218 0.0 0.0 0.00 0.00 0.00 63 1008.1
20260505021535 48 218 0.0 0.0 0.00 0.00 0.00 63 1008.0
20260505020035 49 218 0.0 0.0 0.00 0.00 0.00 63 1008.2
20260505014533 50 218 0.0 0.0 0.00 0.00 0.00 61 1008.0
20260505013033 50 218 0.0 0.0 0.00 0.00 0.00 61 1007.9
20260505011534 51 218 0.0 0.0 0.00 0.00 0.00 60 1007.9
20260505010036 52 218 0.0 0.0 0.00 0.00 0.00 59 1007.9
20260505004530 53 218 0.0 0.0 0.00 0.00 0.00 59 1007.8
20260505003030 55 218 0.0 1.0 0.00 0.00 0.00 57 1007.6
20260505001530 56 218 0.0 0.0 0.00 0.00 0.00 53 1007.4
20260505000030 58 218 0.0 2.0 0.00 0.00 0.00 50 1007.2
20260504234533 60 260 0.0 2.0 0.00 0.00 0.00 44 1006.9
20260504233028 62 122 1.0 3.0 0.00 0.00 0.00 40 1006.7
20260504231527 65 287 0.0 4.0 0.00 0.00 0.00 32 1006.5
20260504230027 67 318 1.0 7.0 0.00 0.00 0.00 26 1006.4
20260504224526 68 242 1.0 10.0 0.00 0.00 0.00 25 1006.2
20260504223026 68 168 1.0 6.0 0.00 0.00 0.00 25 1006.3
20260504221525 69 344 2.0 9.0 0.00 0.00 0.00 24 1006.4
20260504220024 70 310 2.0 12.0 0.00 0.00 0.00 23 1006.3
20260504214523 70 114 0.0 8.0 0.00 0.00 0.00 24 1006.1
20260504213022 70 307 2.0 12.0 0.00 0.00 0.00 24 1006.1
20260504211521 70 315 2.0 7.0 0.00 0.00 0.00 24 1006.4
20260504210019 70 304 4.0 13.0 0.00 0.00 0.00 23 1006.5
20260504204517 70 266 2.0 10.0 0.00 0.00 0.00 24 1006.6
20260504203116 70 48 4.0 13.0 0.00 0.00 0.00 24 1006.6
20260504201515 69 267 4.0 14.0 0.00 0.00 0.00 24 1006.5
20260504200013 71 225 3.0 8.0 0.00 0.00 0.00 25 1006.6
20260504194508 69 276 2.0 12.0 0.00 0.00 0.00 28 1006.8
20260504193013 68 186 2.0 9.0 0.00 0.00 0.00 28 1006.8
20260504191510 68 49 1.0 8.0 0.00 0.00 0.00 28 1006.8
20260504190002 67 161 2.0 11.0 0.00 0.00 0.00 32 1006.9
20260504184600 68 299 4.0 12.0 0.00 0.00 0.00 27 1007.0
20260504183100 67 314 3.0 12.0 0.00 0.00 0.00 29 1007.0
20260504181558 67 284 3.0 12.0 0.00 0.00 0.00 27 1007.3
20260504180055 67 190 2.0 16.0 0.00 0.00 0.00 30 1007.1
20260504174555 64 198 0.0 17.0 0.00 0.00 0.00 33 1007.2
20260504173046 62 350 4.0 12.0 0.00 0.00 0.00 32 1007.6
20260504171546 61 321 3.0 10.0 0.00 0.00 0.00 35 1007.7